Presure
470 485 482 483 515 461 380 354 376 358 339 313 339 330 314 285 282 272 267 265 262 260 254 252 251 250 245 246 242 234 212 219 215 206 208 212 221 223 217 216 222 223 211 213 216 216 224 208 195 215 160 214 80 146
447 462 470 475 473 482 492 379 377 380 356 339 313 339 332 328 289 280 281 266 262 264 270 266 261 257 255 253 250 239 237 237 216 217 216 217 212 209 211 203 206 207 219 223 222 223 215 73 188 225 208 213 219 193
467 459 445 429 431 462 482 483 373 377 367 344 327 331 344 324 351 295 287 282 273 268 269 277 265 264 267 262 252 250 238 238 233 236 216 215 215 221 222 227 218 207 208 206 205 204 204 203 205 208 207 228 224 223
449 476 451 431 434 443 457 464 464 358 364 362 340 326 315 340 333 311 316 292 288 282 278 277 196 164 275 274 265 250 245 248 245 239 238 236 228 236 237 229 228 228 222 216 217 211 212 211 212 212 215 214 212 217
460 461 486 461 450 466 457 447 461 447 353 366 372 356 327 323 341 331 362 313 311 299 291 291 284 277 218 269 271 268 260 257 258 250 245 243 242 247 239 232 234 227 227 228 228 225 224 223 223 222 225 223 224 220
326 357 466 487 466 461 454 446 449 450 440 442 357 370 378 340 325 345 334 328 361 311 297 292 290 294 293 289 284 280 273 272 274 80 262 258 258 249 245 245 248 248 244 242 241 193 239 238 225 225 225 229 230 227
293 302 317 340 447 486 491 470 462 459 467 462 451 453 369 349 364 355 322 345 339 334 320 296 289 289 288 288 295 295 296 293 287 293 292 281 279 273 266 264 266 261 257 263 258 256 254 246 239 241 244 243 244 252
307 300 292 295 306 321 348 438 491 474 470 468 477 481 487 491 497 373 347 360 349 334 335 341 346 339 340 344 357 329 277 274 274 272 248 289 301 302 304 310 316 314 304 292 275 270 268 270 266 262 256 253 252 251
277 282 282 302 286 291 294 301 319 341 389 475 476 482 484 481 473 476 476 467 359 345 347 361 357 348 337 339 345 338 331 323 346 354 351 239 292 285 283 282 286 287 297 299 295 302 299 315 304 311 325 335 306 311
307 305 320 279 278 286 344 284 284 286 295 304 324 344 362 420 472 476 477 473 466 468 470 472 374 361 345 351 354 348 341 328 328 340 343 341 341 352 350 352 350 350 348 338 280 281 298 304 306 310 307 112 300 290
308 307 308 306 306 300 277 280 285 284 302 285 287 287 284 294 321 336 349 366 390 457 461 486 493 486 501 476 472 470 464 391 384 381 348 344 341 335 334 329 329 328 330 333 335 338 337 336 336 337 337 334 326 327
301 306 311 310 306 309 309 306 295 274 277 281 283 296 280 285 283 282 289 295 302 310 317 322 328 334 339 346 347 357 371 424 427 449 490 484 478 465 439 431 422 412 400 380 368 344 333 327 324 320 317 315 314 314
292 297 298 313 311 327 303 306 305 311 297 257 277 272 273 281 279 294 338 284 259 237 248 284 265 289 292 208 297 299 301 304 308 308 310 312 295 326 332 359 463 464 465 459 454 438 409 407 410 411 411 411 410 410
304 296 299 305 311 180 298 330 331 327 253 315 196 303 248 329 316 357 267 253 293 290 225 215 284 285 287 290 290 299 293 300 294 294 295 298 301 306 319 335 337 341 460 450 442 439 439 443 448 449 447 444 444 445
301 303 302 303 229 314 321 324 333 336 304 274 333 272 131 125 121 363 356 351 343 339 334 328 320 310 298 290 294 300 301 305 312 349 399 483 482 478 475 477 470 469 486 491 497 491 477 463 452 439 431 422 420 421
311 303 306 305 309 260 312 323 330 342 244 305 281 318 329 133 265 331 310 296 289 286 287 291 295 309 376 391 398 399 404 421 425 422 419 418 424 444 450 454 452 447 442 443 446 451 468 500 504 497 489 470 438 426
310 311 309 310 295 315 315 324 324 333 326 335 352 376 160 274 276 273 279 288 313 335 424 425 408 392 390 383 395 416 416 416 421 422 426 424 424 422 424 434 436 432 430 437 437 431 423 422 433 489 487 475 482 458
323 314 313 319 317 317 327 335 336 332 336 357 368 272 273 274 278 299 317 438 438 414 398 381 379 384 415 413 409 407 397 376 365 394 452 447 445 442 441 435 413 413 425 435 434 429 429 431 425 415 411 412 491 488
321 324 324 322 321 324 321 319 325 332 321 278 279 276 275 295 315 338 429 425 405 380 371 373 406 406 405 402 398 386 375 363 465 422 406 407 406 409 437 440 470 462 449 426 416 431 437 440 441 435 422 410 407 409
328 326 327 330 316 312 316 315 300 278 281 281 274 279 294 313 335 423 414 396 371 364 367 391 401 400 386 372 366 407 397 408 460 492 507 514 511 511 426 421 408 391 413 479 472 462 446 443 440 449 452 439 409 407
331 314 310 311 314 318 311 317 322 278 282 273 278 284 305 328 416 412 392 364 356 362 385 410 390 376 383 407 356 436 512 528 533 531 551 574 579 587 596 571 567 557 516 487 492 490 486 473 449 449 453 449 454 398
322 324 331 333 334 332 340 317 348 277 275 273 279 299 326 420 192 381 359 351 358 388 414 390 397 410 397 415 437 521 531 541 563 667 675 679 727 726 705 663 644 612 592 552 512 479 489 492 474 444 440 447 449 409
300 303 318 336 334 335 325 344 279 273 271 280 295 322 404 413 392 358 350 349 390 413 400 416 409 384 371 431 524 531 550 592 599 615 615 611 623 643 676 690 674 675 656 601 551 501 473 491 461 435 425 418 442 422
301 301 306 319 342 343 337 337 271 272 278 290 320 380 422 398 356 346 351 384 401 410 395 431 390 365 356 505 529 552 565 590 605 587 606 601 595 603 620 652 709 712 666 605 565 516 472 486 475 408 405 417 423 403
301 297 302 322 363 345 346 270 275 276 287 315 371 424 401 355 349 361 366 399 399 408 409 411 389 380 358 479 536 547 563 586 584 593 577 594 608 612 596 624 694 714 668 596 556 502 459 479 406 422 408 422 387 439
298 300 317 371 354 339 280 277 274 283 299 335 435 412 359 350 357 366 408 403 411 411 472 415 382 369 367 453 536 534 554 570 584 598 615 634 633 626 608 634 738 596 640 571 529 472 470 439 430 405 418 375 363 369
308 319 379 366 340 296 280 276 280 285 312 435 424 359 353 358 357 388 403 399 410 408 469 434 388 372 367 419 499 514 541 562 585 635 679 676 660 641 649 680 716 667 587 535 480 461 460 446 418 407 405 362 354 371
324 380 357 345 328 278 277 276 286 292 327 437 370 355 356 356 355 393 399 396 411 404 461 436 411 375 366 367 422 499 519 535 555 587 685 681 692 695 703 718 691 588 531 464 457 463 420 412 416 401 370 346 348 384
350 357 337 340 282 283 275 283 288 300 324 408 356 354 356 354 354 389 400 400 412 396 446 437 413 395 371 363 422 413 494 520 544 558 577 605 641 658 652 603 565 474 454 456 445 412 442 447 444 391 356 351 366 408
354 345 341 360 288 280 279 288 284 297 313 366 357 353 356 354 356 373 397 406 417 399 421 446 434 408 381 367 359 433 410 466 522 535 534 543 552 554 544 464 446 450 449 444 440 429 443 444 418 357 360 371 408 427
349 337 344 309 296 280 280 288 283 287 302 365 358 350 353 356 359 358 395 405 424 403 409 430 438 433 404 377 362 362 436 421 405 483 514 509 509 503 427 438 439 440 435 424 411 418 406 380 372 377 416 401 439 434
346 337 358 290 297 275 282 286 283 279 290 331 361 352 345 354 355 349 378 397 410 417 405 408 421 429 440 438 405 376 362 435 438 423 396 405 476 482 481 460 419 410 408 405 398 398 417 433 422 409 438 437 403 414
341 338 356 290 298 277 277 282 281 279 279 296 362 356 345 349 361 357 361 391 401 414 415 406 412 415 416 432 443 434 405 376 381 444 426 426 434 400 386 399 421 424 431 428 426 425 427 436 439 430 423 417 418 435
Wind_Speed
13 11 12 16 15 49 63 66 70 75 81 86 90 97 106 112 112 119 118 115 114 121 118 117 119 118 118 116 112 110 120 119 122 124 124 121 119 118 121 115 114 118 127 127 128 131 128 119 119 125 81 123 25 68
15 11 3 4 6 15 23 61 64 68 72 78 86 91 96 105 113 116 118 119 120 124 122 118 119 120 118 114 116 116 116 118 124 127 127 125 126 128 124 121 121 123 121 124 128 129 129 18 98 123 123 124 127 116
20 12 16 9 11 4 13 26 55 56 65 75 82 82 87 93 105 111 114 123 123 126 127 124 118 119 119 114 117 120 118 120 120 123 133 133 134 132 130 126 130 127 129 129 131 129 129 128 127 125 123 124 127 128
21 12 12 7 9 7 9 14 20 54 61 69 77 82 84 87 92 102 116 120 124 128 129 124 75 64 119 116 116 120 122 123 124 125 128 132 134 131 132 133 131 133 135 134 137 138 138 137 136 133 134 133 131 132
23 21 6 3 3 7 12 15 19 34 57 62 67 72 78 80 83 91 98 112 119 122 123 122 121 123 92 115 116 119 122 124 127 128 131 132 132 131 134 136 136 134 137 141 142 143 143 143 141 139 139 137 139 140
47 49 21 14 3 3 10 12 19 31 39 46 56 60 67 77 80 84 89 99 107 121 119 117 115 117 119 121 125 126 123 124 128 18 128 133 135 136 138 139 138 139 138 140 142 104 145 146 144 144 144 145 145 145
35 38 41 42 24 14 2 7 11 17 26 34 38 42 54 61 68 77 81 87 92 100 112 116 119 120 119 117 118 122 126 128 130 131 130 132 133 136 142 142 142 143 142 144 145 147 147 146 149 151 152 151 152 153
33 31 29 30 32 34 35 19 2 5 10 13 13 19 23 27 29 63 70 77 83 86 91 96 100 102 105 106 103 108 121 122 123 123 111 130 134 137 138 135 133 133 136 141 146 147 149 150 149 150 153 153 154 156
27 25 24 26 22 22 22 24 24 22 17 5 3 9 13 15 16 20 24 31 73 76 79 84 87 89 91 93 97 101 106 111 111 110 116 107 136 132 127 127 130 131 137 135 133 139 139 138 142 142 138 135 140 137
29 26 32 19 18 18 26 14 13 12 13 13 10 9 8 4 7 9 13 18 24 30 34 40 76 80 81 84 89 93 97 100 103 105 109 113 117 117 118 118 120 123 125 134 127 127 141 147 146 148 148 48 148 143
32 28 24 21 19 18 13 11 10 8 11 7 5 3 1 5 6 7 10 12 14 18 24 28 34 39 43 50 56 62 68 85 90 93 101 104 107 110 112 114 117 120 123 124 126 128 130 131 131 131 131 131 133 133
33 32 31 26 20 18 16 14 12 10 7 7 8 9 9 10 11 13 16 19 23 26 29 33 36 40 44 47 51 54 58 60 65 67 70 75 80 85 93 97 101 106 111 117 119 125 127 127 128 128 128 128 127 127
29 30 30 29 26 33 19 18 14 16 11 16 12 13 14 16 17 19 22 24 28 35 36 37 41 43 46 49 52 56 60 63 67 69 71 76 76 83 88 89 78 79 79 83 86 94 105 107 107 106 106 106 106 106
30 25 26 28 28 23 31 31 28 24 18 21 10 13 15 20 19 24 28 32 33 36 44 43 44 47 50 53 57 61 63 68 69 73 77 80 83 85 89 92 95 97 78 80 83 84 84 83 81 82 82 84 84 82
33 32 29 28 23 26 31 32 34 30 19 21 30 20 13 20 16 23 25 28 31 35 38 42 45 49 53 55 60 64 68 71 76 71 63 45 47 50 52 54 58 61 62 64 68 72 76 78 78 81 82 82 82 80
33 31 33 32 32 27 30 36 36 40 25 25 17 30 27 22 28 27 31 34 38 42 46 50 55 59 46 45 44 47 49 50 51 52 54 54 53 52 52 52 54 57 60 61 62 62 61 61 64 65 67 70 73 72
31 32 32 34 32 32 33 39 35 40 35 38 38 31 26 29 32 36 40 44 46 48 35 34 35 38 40 43 45 43 45 47 48 50 53 54 54 55 54 53 54 56 58 58 58 60 61 61 58 55 58 60 60 65
32 33 33 33 32 35 41 44 43 40 42 44 36 27 31 36 40 43 46 40 36 37 38 40 40 43 44 45 44 45 44 44 46 49 54 56 58 59 58 55 54 56 55 56 57 57 57 57 56 56 55 55 56 58
33 32 31 32 36 38 37 36 40 43 38 28 32 35 38 42 46 50 47 42 41 42 43 45 46 45 45 47 45 44 45 45 49 48 51 54 55 54 57 56 60 58 56 55 54 54 53 53 52 53 52 52 52 52
31 31 34 37 34 34 36 39 32 29 33 35 39 43 47 52 57 49 47 47 48 49 52 50 47 45 44 45 46 44 46 49 52 54 54 55 56 56 58 57 53 45 46 57 54 51 49 47 49 47 47 47 47 47
32 33 34 35 37 39 39 42 44 36 39 42 46 50 55 59 52 48 48 50 52 55 52 44 43 44 44 45 40 50 55 56 57 59 59 57 53 51 48 49 49 50 53 53 51 48 46 43 42 43 41 40 40 41
36 38 39 42 44 44 45 43 42 41 44 47 51 56 60 52 23 47 51 54 55 52 46 43 44 45 46 50 43 50 50 51 52 41 35 33 27 26 27 34 35 36 38 42 44 42 40 38 35 36 36 34 34 35
42 42 46 46 46 44 42 41 40 43 47 51 56 61 57 49 50 53 54 55 51 48 46 46 46 47 49 52 48 48 48 45 44 40 37 36 32 26 24 22 24 24 23 30 33 36 34 31 29 32 29 27 28 28
44 49 51 49 44 40 37 36 43 46 50 55 60 60 47 48 53 55 54 51 48 46 46 45 44 46 51 49 48 47 45 44 41 41 38 32 28 25 23 23 19 15 18 25 27 30 27 24 24 25 22 22 22 23
51 52 52 46 37 34 34 42 44 49 54 60 61 49 48 53 53 52 53 50 50 47 45 42 45 44 45 52 48 49 49 47 46 43 41 42 37 25 20 22 20 10 15 22 24 25 22 20 22 20 17 18 18 18
51 48 45 37 34 34 37 41 46 53 59 63 48 46 52 54 53 54 52 52 51 48 46 39 41 45 47 55 50 50 50 48 47 46 41 36 31 19 13 14 6 8 16 23 23 21 19 19 17 16 16 17 15 14
43 43 38 36 35 36 41 47 53 58 64 51 45 54 56 56 57 58 56 55 52 49 48 43 40 43 46 54 53 54 52 49 48 46 37 30 21 15 12 8 5 14 23 24 22 19 17 17 17 17 16 13 10 8
42 38 38 38 37 43 48 53 56 61 68 48 56 59 59 60 61 60 57 56 54 53 50 46 43 43 47 50 54 51 51 48 45 45 34 30 22 17 13 8 10 24 25 24 21 19 18 16 15 15 14 10 8 6
43 39 40 40 43 46 51 54 59 67 72 51 61 60 60 60 62 62 58 55 51 52 51 50 48 46 45 46 50 51 50 45 41 43 44 41 36 32 28 27 27 29 25 22 20 16 16 15 15 14 11 8 5 6
43 42 43 41 43 48 53 58 63 71 74 60 61 62 61 61 63 64 58 55 51 51 51 48 47 45 43 44 45 47 47 46 44 43 43 42 40 36 33 30 27 25 23 21 19 17 16 15 14 10 8 6 7 8
44 44 44 43 45 50 55 59 64 71 74 61 62 62 63 63 63 64 59 56 52 52 54 53 49 46 44 43 44 45 45 43 43 42 41 41 39 35 29 27 25 23 22 20 18 17 15 12 10 8 9 8 10 11
46 46 45 46 47 54 57 60 65 69 72 69 62 63 64 63 63 63 63 58 55 52 52 52 51 49 46 43 39 38 39 43 43 38 34 36 36 34 32 27 23 21 19 17 15 13 13 13 12 11 13 13 10 12
44 43 41 47 46 53 59 63 65 67 69 72 64 64 65 65 63 63 64 60 57 54 52 51 51 51 50 48 46 43 39 39 38 39 38 36 32 29 27 25 24 22 20 18 17 15 14 14 14 13 13 12 11 13
Wind_Direction
357 312 238 229 233 227 228 226 225 224 225 228 223 222 220 231 236 238 241 242 240 238 238 237 239 240 240 243 242 241 240 241 243 245 247 248 248 249 250 250 251 252 253 256 257 258 259 258 257 258 258 260 249 260
13 32 42 159 206 211 212 225 224 223 223 224 226 224 223 223 228 237 239 240 242 243 242 238 238 239 240 240 242 242 243 243 244 245 248 249 248 248 248 250 251 252 253 254 255 258 259 232 257 258 259 260 260 261
16 36 96 70 226 214 212 213 223 222 222 223 224 224 224 225 225 228 233 239 240 243 245 242 241 241 241 238 240 243 243 243 243 245 245 247 248 249 250 250 250 253 253 254 256 258 260 261 261 261 262 260 261 262
26 37 151 195 221 217 186 190 203 219 221 223 223 224 226 224 224 225 226 232 238 242 245 247 247 251 245 244 241 241 243 244 244 245 246 247 248 248 250 251 250 251 253 255 255 256 257 258 259 259 260 261 262 262
40 35 50 201 257 167 169 175 171 191 223 224 226 225 228 229 226 226 231 229 232 239 244 247 248 250 252 250 248 245 245 246 246 246 247 249 250 252 250 251 251 252 252 253 254 256 257 258 258 259 259 259 260 261
40 41 46 47 73 176 187 200 195 198 213 222 231 230 227 230 231 229 231 231 236 234 241 244 248 249 249 250 254 255 253 252 251 266 250 250 251 251 252 253 253 252 252 254 254 254 256 257 261 262 263 262 261 261
38 40 43 45 49 50 90 212 207 210 215 222 230 235 232 230 232 234 236 235 235 237 238 242 247 250 253 255 254 253 255 255 258 259 258 258 257 257 256 256 256 256 257 257 257 257 257 258 259 261 261 262 264 263
32 35 40 45 49 48 50 57 100 215 233 235 231 242 244 247 249 235 236 237 239 241 242 243 244 246 248 250 252 252 254 257 260 261 262 261 260 261 262 263 264 264 263 262 259 260 262 263 261 259 260 262 263 264
17 22 30 33 41 49 55 55 50 52 60 97 237 250 255 259 253 250 249 246 240 241 243 245 247 248 248 250 251 251 251 251 254 256 256 256 257 260 263 264 265 266 267 265 264 266 265 268 268 271 272 273 271 272
24 25 35 16 23 29 33 44 53 63 55 44 37 53 64 41 275 265 252 245 247 250 252 253 249 250 251 251 251 252 253 253 254 254 255 256 256 258 259 259 260 261 262 263 266 266 266 265 267 267 268 259 271 273
17 18 24 23 26 23 5 13 20 22 16 11 6 9 270 307 274 249 239 237 245 255 256 261 261 260 258 257 256 256 257 257 257 257 258 258 259 259 259 259 260 260 260 260 261 261 262 263 263 263 264 265 267 267
11 12 12 11 11 19 24 27 6 330 326 325 320 314 286 279 268 260 266 263 261 257 255 252 252 251 251 251 253 255 256 258 259 260 261 260 260 260 260 260 260 260 261 261 261 260 261 261 262 263 263 263 263 264
2 5 2 13 4 19 358 2 4 8 347 314 292 287 285 283 279 278 277 265 261 260 262 265 263 264 264 270 262 262 262 261 262 262 262 263 264 262 261 261 264 263 262 261 261 260 261 262 263 263 264 265 265 266
356 355 360 358 5 12 11 12 7 356 316 348 287 330 293 324 306 303 280 273 275 272 268 270 270 269 269 268 269 267 269 268 269 268 267 266 267 267 265 263 262 262 262 262 261 260 260 260 260 260 260 261 262 263
348 349 350 354 356 2 4 4 2 358 333 324 348 258 282 314 297 310 303 298 296 292 289 285 280 275 273 273 273 273 273 272 271 270 271 273 271 269 266 265 264 264 262 261 260 260 260 260 259 259 260 260 262 263
344 345 345 347 346 353 358 358 358 359 358 338 327 337 313 305 320 320 314 307 300 295 293 291 288 284 287 284 283 281 280 281 280 279 277 275 273 270 268 266 265 263 262 262 263 263 263 262 261 258 258 257 255 257
344 344 343 342 342 350 355 356 356 354 351 346 337 334 296 329 322 314 310 304 299 298 317 314 308 301 297 292 292 293 290 287 285 282 281 278 276 274 272 269 267 265 264 263 262 261 260 261 261 259 257 256 254 250
345 344 341 338 342 351 353 352 352 352 349 340 340 339 334 326 320 316 315 334 331 327 323 317 313 309 309 306 304 300 295 290 288 286 283 280 278 276 273 269 268 268 267 265 263 263 262 261 259 258 258 258 256 251
344 342 340 342 350 353 352 353 355 351 347 351 347 340 332 328 327 329 340 338 334 329 325 323 321 319 314 309 307 305 301 295 290 289 287 285 283 280 275 274 272 268 264 262 263 261 261 261 261 259 257 255 256 255
344 346 349 351 352 352 353 358 1 357 355 351 344 338 335 336 337 342 340 338 335 333 333 329 323 317 314 313 311 305 299 296 297 295 292 288 285 281 278 276 273 267 265 266 264 260 257 257 257 258 257 256 253 254
353 352 353 348 349 352 357 352 350 357 354 349 342 339 339 340 344 343 341 339 339 336 330 325 322 320 320 321 322 318 313 308 304 302 299 296 291 287 282 273 269 265 260 260 260 260 258 254 252 253 254 253 253 251
4 359 353 354 351 349 344 351 344 356 351 346 342 342 343 345 3 345 344 344 340 333 334 331 331 333 334 333 324 319 316 314 312 316 316 315 324 313 292 278 271 259 254 252 250 252 253 252 248 247 249 249 248 248
5 3 4 353 349 349 349 343 356 353 348 344 344 346 346 347 346 348 348 344 338 342 341 342 340 341 339 337 331 329 328 327 328 330 328 327 327 326 322 300 273 259 242 238 237 239 243 243 238 239 243 242 243 243
3 4 3 357 343 342 343 350 355 351 349 348 349 349 350 349 351 349 346 343 346 348 347 347 343 345 341 342 340 340 341 341 344 342 337 334 327 325 328 321 308 262 228 219 219 223 229 229 227 233 233 236 233 235
5 2 357 349 344 350 353 357 354 353 352 354 352 351 352 354 352 348 347 353 354 353 353 350 344 348 348 352 351 349 351 353 351 347 343 338 338 341 322 322 319 249 206 198 200 204 210 210 217 217 219 217 221 223
358 351 348 350 356 1 359 357 358 357 357 356 355 355 357 356 354 354 357 356 357 357 358 358 351 351 352 358 1 -0 -0 0 357 352 344 334 331 333 325 332 328 216 171 177 178 184 189 190 195 197 198 202 211 220
347 348 355 1 8 7 4 3 2 -0 1 357 359 -0 0 359 359 0 1 360 359 360 1 4 359 358 0 4 7 8 8 8 7 0 352 359 1 359 356 356 142 156 150 156 155 159 163 170 179 183 185 194 204 219
353 3 7 12 14 8 7 6 4 3 4 2 4 4 3 3 3 5 5 2 1 2 5 6 10 8 8 9 13 16 18 16 19 24 11 20 24 30 39 63 101 126 131 129 134 140 155 159 163 168 172 181 196 196
6 12 15 14 12 11 8 6 6 8 7 5 6 6 7 7 6 7 7 6 7 6 9 9 9 12 14 15 18 19 26 26 29 38 44 46 50 59 71 92 102 105 115 123 128 125 133 142 150 154 160 174 178 168
12 15 15 13 14 12 11 10 10 12 9 8 9 9 9 10 10 11 9 9 11 11 14 15 15 14 15 17 20 24 26 32 35 45 50 53 58 65 75 85 88 93 99 105 111 117 121 127 136 143 151 156 148 149
13 15 15 17 16 14 14 14 14 15 11 11 12 12 13 13 13 13 12 12 14 15 18 19 19 19 18 18 18 21 28 28 36 37 53 58 60 64 69 75 81 87 92 97 101 106 111 116 121 126 127 134 129 134
12 13 14 18 17 15 16 16 18 16 13 12 14 15 16 16 16 16 15 16 17 18 20 22 22 23 24 25 25 26 29 33 37 40 41 46 57 64 68 71 72 75 79 84 88 93 100 107 113 118 115 120 135 140
13 13 15 18 16 14 15 18 17 16 13 12 16 16 18 17 18 19 20 20 21 21 22 23 24 26 26 26 28 30 30 32 34 40 42 44 47 47 49 55 65 69 74 79 82 86 92 100 108 115 122 126 132 137